Theta_e
294 295 295 295 296 296 296 295 297 299 300 303 307 308 307 306 305 305 307 308 311 314 317 320 328 330 330 330 329 330 331 332 333 333 333 334 334 331 327 329 332 335 340 346 346 351 348 346 349 348 349 348 347 348 348 346 344 344 343 346 343 343 342 340 341 341 340 340 340 340 340 339 338 337 336 336 335 334 333 333 332 330 330 330 329
294 294 294 294 295 295 295 295 296 297 299 301 305 306 305 304 303 303 305 306 308 311 314 317 321 326 329 329 329 330 331 331 332 332 333 333 334 333 325 326 330 335 338 342 346 347 346 349 347 347 348 347 347 346 345 342 343 342 342 343 342 342 340 341 341 340 339 339 339 339 339 338 337 336 335 335 334 334 333 331 331 330 329 329 328
294 294 294 294 294 294 294 295 295 296 298 300 303 303 303 302 302 303 303 304 306 309 312 315 318 322 327 328 329 329 330 331 332 332 331 331 332 333 332 324 326 330 333 338 343 343 347 347 346 346 346 347 347 346 343 342 345 345 343 341 343 343 342 341 340 340 339 339 339 339 338 337 337 336 335 334 334 333 332 331 330 329 329 328 327
293 293 294 294 293 293 293 294 295 296 298 299 301 302 301 301 302 303 303 304 305 306 309 311 313 317 323 326 328 328 328 329 330 331 330 329 330 332 332 330 323 326 329 335 340 344 345 344 346 346 347 347 347 342 342 343 346 345 342 341 342 343 342 340 340 340 339 339 339 338 338 337 336 336 335 334 333 332 331 330 329 329 328 327 327
293 293 294 293 293 293 293 294 294 296 298 299 300 300 300 300 300 302 302 303 303 303 306 307 309 312 318 324 327 327 328 328 328 328 328 328 328 329 331 330 329 323 324 328 335 339 343 341 339 343 345 342 348 348 345 342 343 343 343 344 344 344 342 339 339 339 339 339 339 338 337 336 335 335 335 333 333 332 330 329 328 329 328 328 327
292 292 292 292 292 292 293 293 294 295 297 299 299 299 299 299 299 300 301 301 301 302 303 304 307 310 313 318 323 326 327 327 327 327 328 328 328 329 330 330 329 329 328 323 326 332 337 340 340 342 343 344 344 344 343 340 344 344 344 344 342 344 343 341 339 340 339 339 338 337 336 335 334 334 333 333 331 330 330 329 328 328 328 327 327
292 292 292 292 291 292 292 293 294 295 296 297 298 298 298 298 299 299 299 299 300 301 302 303 304 305 307 310 316 323 325 326 328 328 328 328 329 329 329 330 329 328 328 327 319 321 329 336 340 341 340 343 342 343 344 344 340 343 343 341 344 344 343 341 338 340 338 337 337 336 335 334 334 333 332 331 330 329 328 328 328 327 328 327 327
291 291 290 289 289 289 290 292 293 294 295 296 297 297 298 298 299 299 298 298 299 300 301 301 302 302 304 306 309 315 323 325 326 327 328 329 328 329 329 329 329 328 323 327 327 324 320 327 334 337 339 340 341 342 343 342 342 343 344 344 342 342 342 339 339 338 337 337 335 335 334 333 333 332 331 331 330 329 328 327 328 327 328 327 326
289 289 288 287 288 288 289 290 291 292 293 295 296 297 297 298 298 299 298 298 298 298 299 300 301 302 303 304 306 309 316 323 325 326 328 328 328 328 328 329 328 319 326 326 326 326 321 320 327 331 331 336 340 342 341 339 341 345 345 343 342 341 341 340 338 338 337 335 334 334 334 333 332 331 331 330 329 329 327 327 328 327 326 327 326
287 287 287 287 288 287 288 288 289 289 291 293 294 296 297 298 297 298 298 298 297 297 298 299 301 302 302 302 304 306 310 317 324 321 326 326 327 327 327 328 328 327 327 327 326 326 325 322 320 323 323 329 337 341 342 341 342 343 343 341 342 342 341 338 337 336 336 335 334 334 333 333 332 331 330 329 328 328 327 328 327 326 326 326 326
286 287 286 286 286 287 287 287 288 288 288 290 293 295 296 297 297 297 298 298 298 298 298 299 300 301 301 302 303 304 307 311 318 323 324 326 326 325 327 327 327 328 328 327 327 326 326 326 325 326 329 323 333 339 341 341 341 341 343 344 342 343 340 338 337 336 335 334 333 333 333 332 331 330 330 329 329 328 328 327 327 327 327 327 326
285 285 285 285 285 285 285 286 286 286 286 286 289 292 294 295 296 296 296 297 298 298 299 299 299 300 300 301 302 303 306 309 314 320 322 325 326 325 326 326 326 327 327 327 327 326 326 326 323 327 329 327 325 330 334 335 336 340 340 342 344 342 341 337 336 335 335 334 333 333 332 331 330 329 328 328 328 328 327 327 327 327 327 327 325
284 284 283 284 283 283 284 284 285 285 285 285 286 288 293 295 296 297 296 296 296 297 298 299 298 297 298 298 300 302 304 307 311 318 322 323 325 325 325 325 325 326 326 326 326 327 327 327 327 327 328 330 327 322 325 328 328 336 341 342 341 342 340 338 337 335 334 333 333 332 331 330 330 329 328 327 327 327 327 327 327 326 328 327 326
283 283 283 282 282 282 282 283 284 284 285 285 285 287 290 294 296 295 297 296 295 296 297 297 294 294 293 294 297 299 301 304 308 317 321 322 323 324 325 324 324 325 325 325 325 326 326 327 327 327 328 329 330 329 326 327 327 332 341 341 341 341 340 338 336 334 332 332 331 331 330 330 329 328 328 327 328 327 327 327 327 328 328 327 327
282 282 282 282 281 281 281 283 283 284 284 284 285 285 288 292 295 295 295 296 295 297 296 298 294 295 296 294 292 293 297 303 309 315 321 321 322 322 323 324 324 325 325 324 324 324 325 327 327 327 327 328 329 330 329 323 327 321 329 334 338 339 340 338 337 335 333 331 330 329 329 329 329 327 326 328 327 327 328 327 328 329 328 328 327
281 281 281 281 281 281 282 283 283 284 284 284 284 285 287 291 294 295 295 293 294 294 296 296 297 295 289 291 293 295 292 295 302 311 316 321 320 320 321 322 323 324 324 323 324 324 324 326 326 327 327 327 328 328 329 329 323 314 317 325 328 335 336 338 337 335 333 331 331 330 329 329 329 328 328 328 328 328 328 327 327 328 328 327 328
281 281 281 281 281 281 282 283 283 283 283 283 285 286 288 291 293 294 294 293 293 293 293 295 296 298 294 291 289 289 290 294 297 296 307 312 318 319 318 320 321 322 322 323 324 324 324 325 325 326 327 327 326 326 327 327 327 320 322 317 321 327 331 335 335 335 333 331 330 330 328 328 327 326 327 328 328 328 328 328 328 328 328 328 328
280 280 280 281 281 282 282 281 280 281 282 283 285 288 289 291 292 293 294 295 294 293 291 294 296 297 298 297 295 290 291 293 293 290 299 304 307 315 318 319 320 319 321 321 321 322 323 324 325 325 325 326 326 325 325 323 321 326 327 325 321 325 326 329 333 333 333 333 331 329 328 327 327 327 328 328 328 328 329 329 327 327 328 327 327
279 280 280 280 280 280 280 280 281 281 282 282 283 284 286 288 291 292 293 293 293 291 291 292 294 297 298 298 298 297 297 293 289 292 290 296 304 308 313 317 319 319 319 319 320 321 321 321 324 325 325 325 325 325 324 322 316 320 315 316 321 322 323 323 326 330 332 332 331 330 329 327 327 328 328 327 328 328 328 328 328 328 328 327 328
279 279 279 279 280 279 280 280 280 281 282 281 282 283 284 287 289 291 292 293 292 292 291 292 292 293 298 297 296 297 298 297 296 292 291 290 292 300 309 313 315 318 319 319 319 320 320 319 321 324 325 324 324 324 323 322 321 321 317 315 318 321 322 323 323 323 327 329 331 331 330 328 329 330 328 328 328 328 329 329 328 328 328 328 328
279 278 278 279 280 279 279 279 279 280 281 281 282 283 284 285 286 288 290 291 292 294 293 293 293 293 294 293 295 295 296 296 296 296 293 291 291 294 299 310 313 315 317 318 319 320 319 320 320 321 320 323 323 323 323 322 322 321 316 314 317 320 322 322 321 321 322 323 327 328 330 331 331 330 329 330 329 330 330 329 329 329 329 330 329
278 278 278 278 278 278 279 279 280 280 281 281 281 283 284 285 287 287 288 289 290 292 294 294 295 295 295 294 292 292 293 294 294 294 293 294 290 292 297 304 306 311 315 316 317 319 320 320 319 320 320 322 323 323 323 322 322 321 317 313 316 318 321 321 321 321 320 321 322 324 327 328 330 331 331 330 330 330 329 329 329 330 329 329 328
277 277 277 278 278 278 278 278 280 281 281 280 280 281 283 284 285 285 285 286 289 291 292 294 295 295 295 295 293 293 291 291 291 292 292 291 292 294 298 303 308 309 313 316 317 318 319 319 319 319 319 320 320 323 322 322 315 316 312 314 316 318 320 320 320 320 320 320 320 321 323 325 327 328 329 331 330 331 330 330 329 328 327 328 329
276 276 276 277 277 277 277 277 278 279 279 280 280 281 282 283 284 284 284 286 288 290 292 292 293 294 294 294 294 294 294 293 294 294 293 292 292 291 293 298 306 310 313 315 317 317 318 319 319 319 319 320 319 319 322 321 319 308 311 312 316 317 319 319 319 319 319 319 319 321 322 322 323 324 327 329 329 330 330 329 328 328 328 330 330
275 275 276 276 277 276 276 276 277 277 279 279 279 279 279 281 283 283 284 286 288 290 291 292 293 292 292 293 294 294 294 296 296 294 295 295 293 291 292 295 295 306 310 314 312 315 318 318 319 318 317 318 319 319 320 321 318 308 310 311 314 316 317 318 318 318 317 317 318 320 321 321 322 324 326 327 328 329 330 329 329 330 330 330 330
274 275 276 276 276 277 277 276 277 277 278 279 279 278 279 280 282 283 284 285 288 289 290 292 292 292 292 291 292 293 294 295 295 295 294 293 292 292 292 293 295 298 303 311 312 311 313 317 319 318 317 317 318 319 319 320 317 306 308 314 314 314 316 318 318 317 317 316 317 318 318 318 321 322 323 328 328 328 329 330 330 330 330 330 331
275 275 276 276 276 277 277 276 276 276 277 277 277 278 278 280 281 282 284 285 286 288 289 291 292 291 291 292 292 293 293 294 295 294 295 294 294 293 293 291 291 295 302 308 311 312 312 314 318 318 317 316 317 317 318 317 312 306 306 317 317 311 313 315 317 317 316 316 316 316 316 316 318 321 321 324 326 327 328 328 328 329 330 330 329
275 275 276 276 276 276 276 276 276 276 276 276 277 277 278 279 279 281 283 285 284 285 287 290 292 292 292 292 292 292 293 294 294 295 295 296 295 296 295 294 291 290 298 304 308 309 313 311 309 317 317 317 317 317 312 312 313 304 306 318 317 314 312 314 316 316 316 315 315 315 315 315 317 318 319 320 321 323 324 325 326 325 324 323 323
275 276 276 276 276 276 276 276 276 276 276 276 276 277 278 278 278 281 281 282 283 283 285 288 291 293 292 292 292 293 293 294 295 295 295 296 296 297 297 295 295 292 293 299 306 307 310 313 309 313 317 317 316 317 316 315 309 308 316 317 317 317 311 312 315 315 316 315 315 315 315 314 315 316 317 318 319 320 321 321 320 320 322 322 323
275 276 276 276 275 276 275 275 275 275 275 275 276 277 277 277 278 280 280 281 281 282 284 286 290 292 292 292 292 293 294 294 294 295 295 296 296 296 297 298 298 295 295 298 304 309 308 312 313 310 314 315 316 315 316 315 305 311 317 317 316 316 309 311 313 314 315 315 315 314 314 314 314 315 315 316 317 319 320 320 319 320 321 323 325
275 275 275 275 275 274 274 274 274 274 274 274 275 275 275 276 278 278 279 280 280 281 283 284 287 290 291 290 292 292 293 294 294 295 295 295 295 296 297 298 298 298 297 298 301 307 311 309 311 311 313 314 315 315 316 314 307 312 317 316 316 309 305 309 309 313 313 313 314 314 314 314 314 314 314 314 317 318 319 319 318 319 320 321 324
275 275 275 275 274 274 273 273 273 273 274 274 274 274 275 276 276 276 277 278 278 279 280 283 285 288 290 290 290 291 292 293 293 294 294 295 295 296 296 297 298 299 300 299 303 304 308 311 310 309 314 314 314 314 313 312 308 306 316 316 314 303 310 312 308 310 311 313 313 313 313 314 314 314 314 314 315 317 318 317 317 318 318 320 323
274 274 274 274 274 274 273 273 273 273 273 273 274 274 274 274 275 274 275 275 277 278 280 281 282 285 288 289 290 291 293 293 293 294 294 294 295 295 296 297 298 299 299 299 300 304 304 307 308 308 312 313 312 314 312 310 308 312 311 315 312 312 313 313 312 306 309 311 312 312 313 313 314 314 313 313 314 315 315 316 315 315 317 320 321
274 274 273 273 273 273 272 272 272 272 272 273 273 273 273 273 273 273 274 275 277 278 279 279 280 283 286 289 290 291 292 293 293 293 294 294 294 294 295 296 297 298 301 300 302 303 298 299 304 308 310 313 310 311 311 308 308 308 311 312 312 313 314 314 312 311 307 309 311 312 313 313 313 313 313 313 313 315 315 315 315 314 316 317 318
273 273 273 273 273 272 272 271 271 271 271 272 273 273 272 272 272 272 273 275 274 275 277 278 280 281 283 287 289 290 291 291 292 293 294 294 294 294 294 296 296 298 301 303 305 301 300 301 304 304 305 310 310 308 309 309 308 310 309 309 310 312 313 313 313 312 307 310 311 312 312 312 312 312 312 312 313 313 314 314 313 313 314 315 315
272 272 272 272 272 271 271 271 270 270 271 271 272 272 272 271 271 271 272 273 273 274 275 278 280 281 282 285 288 290 290 290 291 292 293 294 294 294 294 295 296 297 300 304 308 304 302 300 300 304 306 308 309 310 310 309 308 308 308 308 308 311 310 311 312 311 309 310 310 310 311 311 311 311 311 312 312 312 313 313 312 312 312 312 312
272 271 271 271 270 270 270 270 269 270 270 271 271 271 271 271 271 271 271 272 272 273 275 277 279 279 280 282 286 290 290 289 290 291 292 293 294 294 294 295 296 298 300 305 306 304 303 301 300 303 306 308 308 308 307 306 306 307 306 306 306 308 307 307 310 311 307 308 308 308 309 309 310 310 311 312 312 312 313 312 311 310 309 310 309
270 270 269 269 269 268 269 269 269 269 270 270 270 270 270 271 271 271 271 271 271 273 274 275 276 278 279 282 286 289 289 289 289 290 292 293 294 294 294 294 296 297 299 304 305 303 303 301 301 301 305 304 302 303 305 306 304 302 303 303 304 303 302 303 305 307 309 310 310 310 307 308 307 308 309 310 311 311 311 311 310 309 307 306 307
268 268 268 267 267 267 268 268 268 268 269 269 269 269 270 270 270 270 270 270 271 272 273 274 276 278 280 283 286 289 289 289 290 290 291 293 294 294 293 294 295 296 299 304 302 302 302 300 301 302 302 302 303 301 303 306 304 304 302 300 300 300 303 305 303 303 306 310 309 307 308 309 306 307 307 308 310 310 310 309 309 308 305 305 306
266 266 266 266 266 267 267 267 268 268 268 268 269 269 269 270 270 270 270 270 271 272 273 275 277 279 280 282 286 289 290 290 290 290 291 290 290 291 292 293 294 295 299 302 301 301 300 300 300 301 301 300 300 301 302 303 302 301 302 302 299 299 301 302 303 303 303 307 308 306 305 305 304 306 305 306 307 309 308 307 306 305 303 305 306
265 265 265 265 265 265 266 267 267 268 268 268 269 269 269 269 269 269 269 270 270 271 272 274 276 279 280 283 285 288 289 289 289 289 289 289 287 287 288 290 290 292 298 300 301 300 299 298 298 300 300 299 299 298 299 300 301 301 302 303 301 301 302 301 299 301 301 304 304 304 303 302 306 306 307 308 308 306 305 305 304 301 303 306 306
264 264 264 264 264 265 265 266 267 267 268 268 270 273 274 271 270 270 270 270 271 272 273 275 277 279 280 282 285 287 288 288 288 288 288 288 288 289 288 289 289 289 295 298 300 299 298 297 297 297 296 297 298 299 300 301 303 303 302 301 299 298 300 300 297 294 298 302 301 301 297 296 304 305 306 307 305 304 305 307 306 304 303 306 306
262 263 263 263 264 265 265 266 266 267 268 269 272 274 275 276 274 272 272 272 273 273 273 274 275 278 280 283 285 287 287 287 287 288 288 288 289 289 289 289 290 290 291 297 298 298 298 298 298 297 297 296 298 300 301 302 302 302 302 302 299 298 298 297 295 295 293 303 302 302 295 294 299 302 303 306 304 303 303 305 304 303 303 306 306
262 262 263 263 264 265 266 266 267 267 268 271 274 275 276 276 276 273 273 273 273 274 275 276 277 279 280 282 285 287 288 288 288 288 288 288 288 288 288 289 290 292 292 296 298 297 298 298 297 297 297 297 298 300 301 301 301 302 302 301 298 297 297 298 299 297 298 299 302 300 297 292 293 300 300 301 301 303 305 305 304 304 305 305 305
262 262 262 263 264 265 265 266 267 267 268 272 274 275 275 276 277 276 273 273 273 273 274 276 278 280 282 283 284 286 288 288 287 288 287 287 287 287 288 288 290 291 293 296 300 299 300 299 297 297 299 298 297 299 301 302 302 301 300 299 299 299 299 299 299 300 295 297 303 299 297 294 293 294 299 296 296 300 303 304 304 304 305 305 305
261 262 263 263 264 265 266 266 267 268 268 271 274 275 276 276 277 277 274 273 273 273 274 275 277 279 281 282 282 283 285 286 287 287 287 286 286 287 287 288 289 290 293 295 298 298 299 301 299 298 300 301 299 301 300 301 300 299 299 298 298 298 298 299 300 298 295 298 301 299 298 294 292 296 295 296 296 297 300 303 304 304 304 305 305
262 262 263 263 264 265 266 267 267 267 268 273 275 276 276 278 278 278 275 274 274 274 274 276 277 279 281 281 281 282 284 285 287 287 286 286 286 286 286 286 287 289 295 299 300 302 302 304 302 302 302 303 303 302 302 303 302 302 301 298 297 298 295 292 291 292 293 296 297 298 296 294 291 294 297 295 293 297 297 301 303 304 304 304 304
263 264 264 264 264 265 266 267 267 267 269 274 275 276 277 278 278 275 275 274 274 274 275 276 277 279 280 280 281 282 283 284 286 288 288 287 286 285 285 286 287 289 295 299 299 299 303 305 304 304 304 304 302 302 301 302 301 299 296 293 294 294 296 297 294 293 294 294 293 299 297 293 290 295 291 290 293 294 292 293 302 303 304 304 304
262 262 262 263 264 265 266 267 267 268 268 272 275 276 277 278 277 274 274 274 274 274 276 278 279 280 281 281 281 282 282 283 286 288 289 288 286 285 285 285 286 288 294 299 297 298 299 300 301 301 301 301 301 301 301 301 300 297 297 297 295 297 297 296 293 293 294 294 292 295 295 293 291 292 289 289 291 294 292 293 294 302 303 304 304
261 261 262 263 264 264 265 266 267 267 268 272 276 277 278 279 278 275 274 274 274 275 276 278 279 280 281 283 283 282 282 283 286 288 289 288 286 285 285 285 285 286 292 298 299 299 298 299 299 299 299 300 300 300 300 300 299 298 298 296 296 298 297 297 293 294 295 294 294 292 295 294 291 291 289 287 290 290 291 290 291 297 301 302 303
261 262 262 262 262 264 265 266 269 269 269 272 275 277 278 278 277 276 275 274 274 275 276 278 280 281 282 283 284 284 284 285 287 288 289 288 286 286 286 285 285 286 293 298 297 295 295 296 298 299 298 298 299 300 299 298 297 298 301 299 298 298 296 296 295 295 293 292 294 293 297 291 291 291 290 288 289 286 286 289 290 293 298 299 301
Wind_Speed
8 9 8 9 9 9 9 9 8 8 8 8 8 9 9 9 9 10 11 11 11 12 13 15 13 11 11 11 11 11 10 10 10 11 10 10 10 13 20 22 23 24 26 27 31 28 29 32 29 29 26 25 25 27 28 28 25 26 30 28 31 31 29 29 27 28 27 25 25 24 24 26 25 24 24 24 24 23 23 23 22 22 21 19 19
8 8 8 9 9 10 9 9 10 8 8 9 8 8 9 9 9 10 11 11 11 12 12 14 14 14 13 12 12 12 11 11 11 11 11 10 10 12 20 21 24 25 26 27 30 28 32 29 31 28 28 30 28 28 29 29 29 29 27 28 29 29 30 30 29 28 27 26 25 23 26 26 24 24 25 24 23 23 24 23 23 21 20 19 19
8 9 8 8 9 9 10 10 10 9 9 9 8 8 8 8 9 10 10 11 11 11 11 13 14 14 13 12 11 11 11 11 10 11 11 11 10 10 14 21 23 25 26 26 27 30 27 27 31 28 30 30 30 31 31 32 32 30 30 29 33 31 30 29 28 26 26 26 25 26 27 26 24 24 25 25 24 24 24 23 22 22 21 20 20
8 8 9 9 9 9 9 9 10 10 9 9 10 9 9 8 8 9 9 10 11 10 10 11 13 13 13 15 12 11 12 11 11 11 12 12 11 10 10 13 21 25 26 28 28 27 27 25 28 27 27 30 32 32 30 32 31 31 29 30 30 30 29 30 28 26 27 27 26 27 27 26 24 24 25 25 24 22 22 22 23 22 21 21 20
8 9 10 9 10 10 9 9 9 10 11 12 12 10 9 8 8 8 9 9 10 11 10 10 11 13 13 14 12 12 12 11 12 12 13 12 12 11 11 12 13 20 26 25 28 28 26 26 26 26 29 31 29 28 30 33 30 34 37 36 34 34 31 33 30 28 30 29 28 28 27 25 24 24 25 25 24 23 23 23 24 23 23 22 21
7 8 8 9 9 9 10 10 9 10 10 10 11 10 10 10 10 8 8 9 10 10 10 11 10 11 12 14 13 13 11 12 13 13 13 12 12 12 12 11 12 12 14 23 26 26 26 24 26 28 27 28 27 31 32 32 31 32 34 31 35 35 34 33 34 32 31 31 30 28 27 26 25 25 25 24 24 25 24 23 23 23 23 23 22
8 8 8 8 10 11 11 10 10 10 10 10 10 11 11 10 9 10 9 8 8 9 9 10 12 12 12 11 14 15 15 14 13 13 13 13 12 12 12 12 12 12 12 12 17 23 24 23 23 24 24 24 28 30 30 30 32 33 34 36 35 33 33 34 35 35 34 34 28 26 27 26 27 28 28 26 24 24 24 24 24 25 24 24 22
9 9 10 10 11 11 11 12 13 11 10 10 10 10 10 12 10 8 11 11 9 10 7 10 11 12 12 11 11 14 14 13 13 13 13 12 12 13 13 13 13 13 13 12 12 15 22 21 23 23 22 24 26 29 28 29 35 36 37 37 34 36 36 35 35 34 34 29 28 27 27 27 27 28 27 26 26 25 25 25 24 24 24 24 23
11 11 11 11 10 10 10 11 12 13 13 11 10 9 10 10 12 10 8 11 11 11 9 8 10 12 12 12 11 12 14 15 15 13 12 13 13 14 14 14 14 14 12 12 12 12 16 21 21 22 22 23 24 25 28 34 34 33 34 35 32 36 36 35 35 35 32 30 29 28 28 28 30 30 28 27 27 27 27 26 25 24 23 23 23
12 12 11 10 10 10 11 11 11 12 12 12 12 10 10 10 11 11 10 10 10 10 11 10 9 11 12 13 13 11 12 14 14 13 13 14 15 15 15 14 13 13 13 12 13 12 11 16 22 21 20 21 23 25 26 29 28 31 33 33 37 36 33 35 36 34 31 31 29 28 28 30 29 30 29 28 27 27 27 27 26 25 25 25 24
12 12 11 11 11 10 11 10 10 11 13 14 12 11 11 11 11 12 12 11 10 10 10 10 11 10 12 14 13 13 12 13 14 15 15 16 16 16 14 14 13 14 13 13 13 13 13 11 12 13 15 23 23 24 25 27 28 30 36 37 36 35 36 35 33 30 31 28 30 30 29 28 29 31 29 28 27 28 27 27 26 26 26 25 25
11 11 12 12 12 13 13 13 12 12 13 15 14 12 13 13 13 12 13 13 10 9 9 9 10 11 12 14 13 12 13 13 14 17 16 17 15 13 14 14 13 13 13 13 12 12 12 13 12 13 13 18 24 24 25 27 28 30 33 37 38 38 35 34 32 29 24 26 26 27 29 31 31 30 29 29 29 28 28 28 28 28 29 27 26
11 12 12 13 13 12 12 11 11 11 12 13 16 18 16 13 13 11 12 12 12 9 7 6 9 12 10 11 13 11 11 13 16 17 18 16 15 14 14 14 14 14 13 12 13 13 13 13 13 12 13 12 17 25 26 25 26 31 36 36 38 40 38 35 33 32 30 31 30 31 30 31 31 30 29 29 29 30 29 28 29 29 28 27 27
11 11 11 10 12 12 11 12 10 10 11 12 15 17 18 14 12 12 10 12 11 9 7 5 8 9 12 12 13 12 9 11 14 17 18 15 15 15 14 15 15 14 12 12 13 14 14 13 13 13 13 14 14 14 17 21 23 32 37 37 40 40 40 39 34 37 33 32 31 29 30 30 31 31 29 29 29 30 30 30 29 28 28 27 27
10 11 10 10 11 12 12 10 10 10 11 12 13 16 15 15 13 12 12 10 11 8 7 6 9 8 8 11 12 12 10 7 9 14 16 16 15 15 15 15 18 15 12 12 12 13 13 13 14 14 14 15 15 15 16 18 21 28 29 37 41 42 42 40 39 39 36 33 32 32 31 31 30 31 31 30 31 30 30 30 29 28 28 28 28
11 11 10 12 13 13 13 11 10 9 10 13 14 15 15 15 13 13 12 13 10 9 6 7 7 5 8 5 6 5 11 8 7 10 12 16 15 16 15 15 15 15 12 13 13 13 13 13 15 15 15 15 13 14 15 15 23 27 35 38 37 37 39 41 39 38 37 36 34 32 32 31 30 30 30 31 32 31 31 32 31 29 28 28 28
9 10 10 12 12 13 12 11 12 11 13 14 14 14 14 14 15 14 13 13 14 10 7 7 9 8 9 8 8 7 8 11 8 12 9 11 15 18 15 17 16 15 14 15 15 14 14 14 13 13 14 14 12 12 12 15 16 17 30 38 41 40 40 37 42 38 36 35 34 33 32 29 28 31 31 31 32 31 32 32 31 29 27 28 27
8 10 10 10 11 11 12 15 14 15 13 14 15 15 15 14 14 14 15 14 13 12 12 8 9 10 11 12 10 9 7 5 6 9 10 9 11 11 17 18 16 15 14 13 13 13 13 14 13 12 11 12 12 11 11 10 14 16 17 29 41 39 38 40 41 44 40 37 34 35 35 34 32 30 30 31 31 31 30 31 32 31 29 30 29
11 10 10 11 13 12 13 13 12 12 12 13 14 16 15 14 14 14 14 12 12 14 14 11 7 10 11 13 13 11 10 7 9 6 12 12 5 8 9 13 15 16 15 14 14 13 11 11 14 14 12 12 11 11 11 9 10 20 21 26 41 41 37 37 38 38 39 36 37 37 35 35 34 32 32 31 32 33 30 30 30 31 30 30 29
10 11 11 13 12 12 12 12 13 12 10 11 12 14 15 14 14 16 16 13 13 14 14 12 11 10 9 11 10 10 10 11 12 9 9 14 20 14 12 10 10 14 16 15 14 13 13 12 11 13 12 11 11 9 11 13 8 13 19 20 19 30 33 34 34 35 35 36 38 35 34 34 33 34 32 32 33 33 33 31 31 31 31 30 29
9 11 12 12 12 13 14 14 13 11 9 11 11 12 16 17 17 15 13 15 15 15 14 13 11 12 7 8 8 9 9 10 10 7 8 10 15 14 16 10 9 10 10 11 12 12 11 12 14 12 11 13 12 12 12 13 13 10 19 23 21 25 28 29 30 31 32 32 32 34 35 36 36 34 36 31 32 32 32 32 29 30 30 28 27
9 9 11 11 12 12 12 14 14 12 10 10 11 11 13 14 14 13 15 17 14 16 17 14 12 12 10 9 8 7 8 8 9 9 10 12 13 14 14 15 13 10 11 11 12 13 13 12 10 11 9 10 12 12 13 13 15 16 22 29 22 21 26 29 29 30 32 32 31 31 33 36 34 34 34 34 34 34 33 32 32 29 31 30 28
10 10 10 10 11 11 11 13 15 16 14 12 12 12 12 12 13 15 17 17 14 16 17 17 13 13 11 9 10 10 10 10 9 8 9 9 10 13 14 16 18 13 12 13 14 12 11 11 12 11 10 10 9 13 14 14 17 18 34 32 30 24 25 25 24 26 28 30 32 31 30 29 30 31 33 33 34 34 32 31 31 32 32 30 30
9 10 9 9 9 10 11 14 15 16 15 13 14 14 14 15 14 14 14 16 16 15 15 18 18 12 11 9 9 9 10 11 9 8 8 9 9 12 13 13 14 13 9 13 13 14 13 13 12 12 12 11 10 8 14 16 15 24 25 35 34 32 29 26 25 25 28 29 30 30 27 27 27 27 29 32 33 31 32 32 32 32 32 30 29
11 11 10 11 10 12 13 13 13 15 17 16 17 17 17 17 16 16 15 15 15 16 15 16 16 13 10 9 10 10 11 10 9 9 8 9 8 11 14 11 14 13 9 12 10 11 12 13 12 12 12 11 11 11 11 14 13 21 26 25 33 32 31 28 27 27 27 28 29 29 28 28 27 25 25 26 30 33 33 35 33 31 32 31 29
12 10 11 11 12 12 14 15 16 17 18 18 16 15 17 18 17 16 16 14 14 17 17 17 15 14 11 9 10 10 10 9 9 8 10 9 10 12 14 11 11 15 7 11 12 11 10 11 12 11 12 12 12 12 10 15 16 21 24 22 27 30 29 28 29 29 27 26 26 25 25 25 25 26 28 29 29 28 32 32 32 32 32 29 29
11 12 12 13 15 14 16 17 16 19 18 17 16 16 17 17 15 16 14 12 14 16 16 16 16 15 12 11 10 10 10 9 9 10 10 11 11 12 11 12 13 14 14 11 14 18 16 13 14 14 13 13 12 12 11 12 17 25 23 21 19 29 27 28 28 30 29 28 28 27 27 26 24 24 26 28 30 29 30 31 31 31 30 30 28
12 13 13 12 14 15 15 16 18 18 18 18 18 17 16 16 16 16 16 10 12 18 17 18 18 17 15 12 11 11 10 10 10 10 10 10 11 11 10 11 13 14 12 12 14 15 16 11 6 12 14 13 13 13 15 15 15 20 19 15 18 20 28 28 27 28 27 27 28 27 26 25 26 27 26 25 25 25 26 26 28 27 26 25 23
12 11 13 12 13 14 15 18 17 18 19 18 18 18 14 14 15 15 13 12 12 15 14 17 15 14 12 13 12 11 10 10 10 10 10 10 11 11 12 14 12 13 14 12 15 15 16 16 13 12 14 15 13 12 15 14 18 20 13 13 17 17 24 28 28 26 25 26 27 24 25 24 25 25 24 24 24 25 25 25 26 25 24 23 23
12 12 13 14 14 15 16 15 17 17 18 18 18 16 15 14 16 14 14 12 13 13 13 15 16 13 12 12 11 11 10 10 10 11 10 10 11 12 12 13 12 13 15 15 12 14 16 16 14 13 15 16 15 15 16 15 21 23 17 15 15 17 26 27 27 27 26 26 25 23 23 24 24 24 22 23 24 25 24 23 24 24 23 22 20
14 14 14 16 12 17 13 18 16 18 17 18 18 18 18 17 15 13 11 11 12 14 13 13 14 13 12 13 12 11 10 11 11 10 11 11 12 12 13 12 12 14 16 18 14 9 14 18 13 13 17 18 17 16 15 17 21 23 19 17 17 21 27 23 27 26 25 26 25 24 24 24 23 23 22 22 23 22 22 22 21 20 20 20 20
13 15 15 14 17 15 17 15 19 17 18 17 18 18 18 16 13 13 14 14 16 15 15 14 12 14 13 13 13 11 10 10 11 11 11 12 12 12 12 12 13 14 14 16 20 11 10 16 15 14 19 18 18 18 16 16 21 23 17 17 19 23 18 16 24 25 25 26 26 23 24 25 25 24 23 22 21 21 20 20 19 18 20 20 21
13 16 14 19 15 18 15 18 17 17 18 18 17 16 17 17 16 14 15 17 18 16 13 16 15 15 15 14 14 12 10 12 11 11 11 12 12 12 12 11 13 13 14 16 21 14 7 8 12 14 17 18 16 19 19 17 18 17 19 16 18 17 15 14 16 24 25 26 25 25 24 24 24 24 23 22 20 19 18 20 19 18 20 22 23
14 14 20 14 18 14 18 16 18 17 18 18 18 17 17 16 19 12 14 18 18 15 13 14 16 14 15 15 14 13 12 14 13 13 12 12 12 12 12 12 12 13 14 15 20 15 10 6 11 12 15 21 16 16 19 19 19 15 17 16 16 18 17 14 14 15 25 24 25 25 24 24 24 23 22 21 20 19 18 19 20 20 20 19 23
15 16 14 18 15 19 17 18 17 18 18 18 16 17 18 19 20 18 17 17 16 17 17 16 14 15 16 16 15 13 11 12 12 13 13 14 13 14 14 12 12 13 14 18 19 15 17 13 13 15 12 14 19 19 19 20 20 18 18 18 18 16 16 18 16 14 24 25 26 24 24 24 23 22 21 21 21 20 20 19 20 21 21 19 22
15 14 16 16 19 16 19 19 18 17 18 17 17 18 19 20 20 19 18 18 17 18 19 18 14 13 15 16 15 13 12 12 11 11 12 13 13 13 13 12 11 13 14 19 21 17 16 17 12 16 16 16 14 19 19 20 20 17 16 14 15 16 15 16 17 15 20 26 26 25 24 23 23 21 22 22 21 21 21 20 20 21 22 22 21
17 17 17 16 16 17 17 17 17 17 17 17 18 19 18 18 19 18 18 18 18 18 19 17 16 14 14 16 16 13 11 11 9 10 11 15 14 13 12 10 10 11 13 19 19 17 19 20 16 13 16 15 15 17 18 18 16 16 15 17 16 15 15 14 14 16 22 25 23 24 23 22 21 20 21 22 22 21 22 21 20 22 22 21 22
17 16 18 16 16 17 17 18 17 17 17 17 18 19 20 19 18 19 19 19 19 19 18 18 18 15 14 17 18 14 12 11 11 11 13 16 14 12 12 11 10 11 16 19 17 17 18 20 20 15 14 15 12 12 18 19 17 15 14 13 12 11 12 11 10 12 13 14 13 15 17 18 20 20 22 20 22 21 19 22 20 22 20 21 22
16 18 17 18 16 16 17 17 16 17 17 17 18 18 20 20 19 20 20 20 20 18 18 18 18 17 16 16 16 15 13 11 12 12 11 13 11 11 10 10 11 12 16 18 16 19 19 18 18 19 16 13 17 15 15 19 19 18 19 16 14 11 13 16 14 10 11 14 15 17 15 14 17 15 19 21 22 24 22 20 20 22 21 21 22
16 17 17 18 17 15 16 16 17 16 17 17 17 18 18 18 18 19 18 18 19 19 19 19 17 15 15 17 16 15 13 12 11 11 11 9 8 9 8 7 10 13 16 17 18 18 17 18 18 19 18 17 12 14 15 17 17 13 15 19 19 15 14 12 16 16 12 14 14 12 14 14 15 18 21 19 21 23 24 21 20 20 23 22 22
15 16 16 17 18 18 18 17 18 16 16 16 15 15 16 18 18 19 19 19 19 19 19 19 18 16 14 15 15 16 15 16 17 15 13 11 9 9 8 8 10 13 15 16 19 18 17 16 15 15 16 17 16 15 15 16 19 19 16 16 16 17 15 13 8 9 11 14 13 12 11 11 12 10 13 12 14 20 20 20 17 22 24 23 22
15 15 16 17 18 19 19 18 17 15 14 13 18 27 25 18 17 15 15 16 17 18 18 18 17 15 16 16 15 22 22 21 20 19 20 17 17 12 9 8 9 12 14 14 19 19 18 18 17 16 16 17 16 19 19 19 19 17 17 15 15 11 14 13 8 3 10 12 12 13 8 6 11 12 11 12 10 13 10 12 11 13 19 24 24
15 15 15 17 17 17 18 17 17 15 14 14 24 26 27 29 22 18 17 17 17 18 18 18 18 16 14 15 14 16 18 19 17 20 20 19 16 15 16 17 17 14 14 13 17 21 20 19 18 18 18 19 19 20 21 19 15 18 19 19 19 17 17 17 15 5 4 16 16 15 8 6 9 13 12 13 11 9 10 12 17 19 21 23 24
14 13 15 17 17 17 16 17 17 16 16 21 26 26 27 28 26 20 17 17 16 17 17 18 16 15 15 15 14 13 13 13 12 12 14 16 16 14 15 20 22 25 24 19 15 18 21 20 19 20 20 20 21 19 18 19 18 18 18 16 17 19 19 20 18 18 14 13 16 15 13 5 5 10 10 10 11 10 12 16 22 23 24 25 26
14 15 15 16 17 17 17 17 17 16 17 23 27 27 26 27 28 25 18 17 17 17 19 19 17 15 12 11 11 11 11 16 14 12 11 11 11 14 14 19 23 25 28 29 25 22 21 22 23 22 24 21 21 20 21 23 23 23 18 17 19 20 20 21 18 13 10 13 16 14 14 8 6 6 11 7 7 9 12 18 23 25 26 26 26
14 15 15 16 17 17 16 16 16 16 18 23 27 27 27 28 28 26 19 19 18 18 20 19 17 16 14 12 12 12 13 13 12 12 10 9 9 10 11 11 13 19 26 26 28 29 25 21 22 23 21 23 23 22 23 23 23 23 23 22 22 20 20 19 15 13 12 12 18 15 13 10 6 9 10 7 7 8 9 16 23 23 23 22 22
15 16 15 15 13 13 14 15 15 17 17 26 27 28 28 29 29 26 18 17 15 17 18 19 19 16 12 11 12 13 14 13 12 12 10 10 9 10 11 12 13 15 16 15 17 22 22 21 23 23 21 22 24 23 19 20 25 24 25 25 22 18 11 11 11 10 9 9 9 12 14 10 4 9 10 8 6 8 6 11 20 24 25 25 25
13 15 15 15 16 16 16 16 16 18 18 26 26 27 29 30 30 18 14 15 15 16 18 18 18 16 15 14 13 13 15 15 16 19 15 10 9 11 13 13 13 15 15 16 19 19 22 24 24 24 23 23 21 22 23 21 18 14 11 12 13 14 16 15 13 11 12 9 7 14 10 9 5 11 6 4 8 8 5 5 14 21 24 26 27
15 15 16 15 14 15 17 16 17 17 18 23 26 28 29 30 24 13 13 12 13 15 17 16 16 16 14 14 14 14 15 16 18 21 19 15 10 12 12 13 12 14 14 13 18 22 24 27 28 30 30 30 30 33 33 32 22 19 16 17 18 18 18 17 11 12 13 12 7 9 9 12 8 6 7 4 7 9 7 7 6 16 23 24 25
16 15 16 16 15 14 16 17 17 17 18 22 28 28 29 29 23 13 10 10 12 13 14 15 15 14 16 24 20 15 16 16 20 23 21 14 11 11 11 11 13 14 13 11 11 14 20 25 28 29 29 29 30 30 30 30 31 25 22 22 20 18 19 19 18 17 13 13 12 9 12 12 10 6 8 4 4 1 5 5 5 9 16 18 24
14 14 15 15 15 14 14 16 23 21 18 21 27 28 29 27 20 11 9 9 12 13 13 14 13 12 12 15 23 21 18 18 25 25 24 17 11 10 10 9 12 14 13 12 14 13 10 12 17 22 21 27 28 25 22 29 31 29 27 26 21 20 20 18 17 14 12 10 14 15 16 11 15 11 12 7 6 1 0 4 5 6 9 9 11
Wind_Direction
328 327 325 326 323 323 323 320 319 315 316 312 314 316 319 320 320 318 317 314 313 311 310 304 287 259 241 238 233 233 232 229 229 234 234 229 223 224 223 225 225 226 230 224 222 217 218 219 216 213 213 215 214 212 209 201 201 193 188 182 179 176 175 172 169 169 168 169 169 167 163 163 164 164 161 158 156 157 159 157 154 162 164 164 164
323 321 324 321 323 320 319 317 316 314 310 309 308 309 312 315 314 315 315 315 312 310 310 305 302 285 257 242 233 228 227 227 227 229 235 234 229 225 224 223 226 225 226 228 223 220 220 214 218 214 215 217 212 214 214 211 204 206 201 187 190 178 174 172 171 169 167 169 168 162 163 165 163 163 163 160 157 158 162 160 160 164 166 166 168
320 319 320 319 319 319 317 316 312 310 308 302 303 301 302 303 308 310 312 312 309 308 307 306 304 299 279 252 234 231 230 226 225 225 231 235 232 227 227 224 225 227 226 228 224 220 218 218 219 215 214 217 217 215 210 211 207 198 198 196 187 181 175 172 172 168 168 169 166 161 163 164 164 163 162 161 159 162 164 161 162 164 165 164 169
316 318 317 317 316 316 313 313 310 308 305 302 301 299 296 291 294 297 300 303 305 305 303 300 301 299 293 271 251 236 230 225 223 222 226 231 230 229 229 227 223 225 227 223 227 221 218 218 220 217 216 217 219 221 219 213 204 196 195 193 189 177 176 173 171 168 170 171 165 162 163 165 164 161 161 159 161 165 164 161 165 164 165 166 169
317 316 317 316 315 314 312 308 304 302 303 301 299 299 296 295 290 292 295 299 301 306 304 298 299 302 301 291 265 243 233 228 223 222 224 227 230 227 227 227 225 225 228 228 226 221 220 216 224 223 221 222 219 214 214 216 210 204 194 191 184 180 178 175 171 170 171 170 167 164 166 167 164 162 161 161 161 160 160 160 165 163 164 168 171
320 318 315 315 314 311 310 308 305 304 298 300 301 299 296 297 296 295 292 295 300 303 307 304 303 301 301 300 282 260 244 229 225 223 222 224 226 228 227 226 225 221 225 229 230 226 220 218 217 220 220 219 217 218 216 215 208 205 192 192 188 179 178 176 173 172 172 172 168 165 164 165 164 162 163 165 161 159 159 161 164 165 167 170 172
327 324 324 326 326 322 317 311 307 300 300 297 293 296 297 290 295 296 293 290 290 293 299 300 303 300 298 299 296 275 249 237 227 225 223 224 223 225 226 225 225 222 221 221 230 232 224 216 216 219 221 221 219 218 213 212 214 207 197 195 187 178 176 175 175 173 174 172 166 162 162 165 164 167 168 164 161 161 161 165 168 168 167 171 172
336 340 336 332 326 320 317 316 314 307 297 291 289 287 289 292 286 285 295 293 293 292 292 296 297 297 296 294 293 291 270 244 229 222 219 219 221 222 222 224 223 222 218 220 223 227 226 222 219 221 219 219 219 218 213 216 213 208 202 194 194 186 178 176 176 175 174 168 165 165 165 162 161 166 167 163 162 161 165 167 167 168 170 170 170
342 340 331 325 319 314 313 315 313 309 303 296 286 280 280 282 288 282 276 287 291 292 294 290 296 294 296 292 289 290 284 259 239 226 216 215 219 219 220 223 222 218 215 217 220 225 223 220 223 221 219 218 218 219 215 218 215 205 206 194 191 188 181 176 174 174 174 170 168 166 165 163 166 169 165 163 165 168 167 166 166 169 169 168 168
336 331 324 320 316 312 311 312 312 310 303 297 291 285 277 272 278 283 279 278 284 290 293 294 291 292 291 291 289 286 285 281 258 236 218 217 218 219 219 222 222 220 216 216 216 220 221 219 223 226 218 215 219 221 216 215 215 213 208 205 193 184 174 174 175 175 171 170 166 165 164 165 165 167 165 166 169 169 168 168 167 167 170 167 169
333 330 329 324 318 314 311 312 313 310 308 302 295 289 282 275 271 274 279 273 275 281 285 290 289 286 286 287 286 279 278 274 268 247 224 220 218 217 216 218 219 218 216 213 217 218 216 215 215 223 222 215 216 220 220 215 210 205 207 201 187 179 176 175 174 174 172 166 164 165 165 165 165 167 166 166 168 170 169 167 167 169 169 166 167
330 331 327 324 322 318 315 316 313 310 306 304 300 293 286 282 276 273 272 279 274 272 278 283 284 282 283 284 277 270 272 274 269 251 232 220 219 216 215 216 216 215 213 210 211 211 212 210 211 213 216 218 216 217 220 218 211 205 208 202 187 180 174 170 172 170 164 159 161 163 165 165 167 169 168 168 169 170 170 169 170 170 167 168 169
330 328 321 317 311 307 306 304 304 302 301 298 299 296 288 279 278 273 271 270 276 272 264 271 291 292 283 279 285 275 272 278 279 257 231 223 217 215 214 213 215 215 211 211 210 212 210 210 211 211 211 214 217 218 218 219 216 210 204 201 187 176 173 169 170 168 165 166 164 166 165 166 169 170 167 171 173 171 169 169 170 169 169 168 167
321 318 309 304 306 306 304 303 304 299 294 293 295 291 287 278 274 274 261 262 264 267 267 286 279 283 307 310 298 289 265 273 275 262 231 219 216 216 214 211 214 212 210 209 213 213 213 210 211 210 211 212 215 213 217 220 224 219 200 192 185 175 170 168 166 168 166 164 165 164 166 168 169 165 167 172 174 172 170 171 170 170 169 167 167
316 317 315 314 310 307 303 300 295 299 298 296 295 293 288 281 270 266 273 258 261 258 256 213 270 277 281 297 292 309 303 292 275 263 238 216 210 217 217 216 214 211 208 207 213 214 213 212 209 208 207 210 212 211 210 212 216 214 215 194 180 176 168 167 164 167 164 164 163 166 167 167 165 167 170 173 175 173 172 172 171 169 168 168 168
323 322 317 314 310 304 301 297 296 297 300 298 293 288 286 280 274 265 261 269 261 263 224 227 226 266 284 229 297 318 299 279 297 279 250 231 211 214 216 218 214 213 206 210 210 209 210 208 209 205 203 206 206 209 208 212 210 206 201 187 177 168 169 164 162 161 163 163 163 163 168 168 167 168 173 177 176 173 172 172 172 169 168 168 169
312 308 307 304 301 295 295 301 307 309 304 296 292 287 282 279 277 272 261 261 266 264 255 226 235 212 242 282 282 257 235 272 355 302 283 260 225 209 213 213 213 208 207 210 207 206 204 204 203 202 201 194 194 195 202 203 203 200 196 182 171 166 165 166 159 159 160 164 165 163 163 168 170 173 176 177 175 174 173 173 171 170 170 170 171
312 309 302 299 298 304 307 307 302 300 297 291 291 298 300 297 283 272 263 252 259 266 267 241 229 223 217 229 232 261 289 314 353 288 310 300 300 253 205 207 206 204 203 206 200 199 196 197 195 194 191 186 179 177 173 179 190 186 191 176 166 163 162 161 162 161 163 164 163 166 166 170 171 174 177 177 176 175 175 172 171 172 172 172 172
315 313 310 306 305 300 296 293 292 291 292 293 291 290 291 294 298 285 271 261 254 259 256 259 240 233 225 228 232 234 247 257 260 287 301 307 287 307 260 206 196 194 195 190 191 185 182 187 189 189 190 181 178 173 163 158 176 162 162 178 160 157 159 156 157 160 162 163 166 165 163 172 173 174 177 177 178 176 174 173 172 173 172 172 174
312 312 308 304 301 299 296 291 290 288 287 284 286 287 288 289 290 291 287 272 256 253 255 249 243 251 216 221 224 234 237 243 243 248 267 285 295 299 288 257 214 199 186 183 183 188 184 179 188 184 184 182 173 174 161 151 164 150 137 145 144 146 154 157 158 160 160 164 167 164 166 172 177 178 176 177 177 177 175 174 173 172 172 173 174
308 306 301 298 298 298 299 294 288 282 279 281 280 281 285 289 288 289 291 287 273 257 252 247 242 244 220 226 220 230 233 234 242 221 239 260 274 280 288 275 245 222 202 181 183 182 183 186 178 188 189 173 173 171 164 158 152 157 143 145 154 156 156 157 158 158 158 163 165 166 169 173 177 176 177 178 179 178 176 173 172 170 171 172 172
308 299 294 293 294 294 293 294 289 286 284 283 286 285 283 280 282 285 287 289 288 274 254 247 243 243 222 222 220 228 237 240 233 223 232 230 252 274 274 264 235 221 211 193 190 187 185 181 181 179 181 183 170 171 166 166 159 160 152 149 153 156 157 161 163 163 162 162 162 167 169 172 175 177 178 179 179 178 175 173 172 170 172 172 174
307 302 291 289 291 295 298 297 295 292 289 290 286 282 275 277 282 284 283 284 284 283 272 254 242 240 225 217 222 221 225 232 230 225 224 231 247 258 266 261 237 211 211 201 191 194 186 179 177 178 168 188 183 171 168 167 163 171 157 153 154 159 161 165 166 165 162 160 159 164 172 175 175 177 178 179 178 176 172 174 175 174 173 174 176
301 296 293 291 291 293 294 296 294 292 288 286 283 285 289 289 284 282 282 284 282 279 275 261 245 234 230 218 222 223 229 235 235 231 225 239 235 259 266 285 269 230 189 195 194 189 187 183 183 173 173 176 178 187 168 162 168 166 162 156 156 158 165 167 166 164 163 161 160 164 171 170 175 177 180 178 177 176 171 176 177 175 175 177 177
301 298 295 296 296 295 297 294 292 290 289 286 285 288 290 286 282 282 280 280 282 283 279 265 244 231 227 223 222 221 227 229 232 227 230 234 229 251 260 259 276 276 220 187 195 193 190 185 180 174 164 171 172 175 181 160 160 170 160 158 156 158 162 165 163 165 164 162 162 166 170 173 175 175 176 181 182 179 173 178 179 176 177 178 178
295 292 296 297 294 292 291 291 289 287 287 286 286 285 285 283 282 282 282 284 284 283 279 270 252 238 225 222 222 222 227 226 227 227 232 227 230 230 253 262 259 272 266 199 186 179 202 195 183 173 161 164 167 164 181 166 157 174 161 156 157 158 161 161 161 163 164 164 163 162 169 174 175 175 180 184 184 179 177 177 178 176 177 179 178
288 292 294 294 293 292 292 289 288 286 286 286 285 283 280 280 282 285 282 280 286 287 283 271 256 246 231 221 225 224 227 224 221 229 228 230 227 230 230 252 267 268 254 217 184 194 181 187 184 173 170 163 163 160 167 167 158 166 164 154 156 158 159 160 161 163 165 166 163 168 174 175 176 176 179 184 182 181 181 179 176 177 177 179 179
287 288 287 288 291 291 288 287 286 284 283 282 280 280 278 279 283 280 277 281 285 288 289 279 258 241 234 225 225 229 226 227 225 228 230 229 233 231 222 229 245 266 260 228 188 188 177 171 182 185 171 164 161 161 156 153 156 160 161 155 154 160 159 160 163 164 166 166 165 172 174 173 173 177 182 180 179 182 180 177 176 177 178 180 178
283 284 286 287 288 289 290 289 286 284 283 281 278 274 274 278 279 276 278 284 282 285 288 287 270 249 239 229 223 228 226 230 229 229 229 230 234 234 222 224 227 241 259 250 197 174 177 172 172 183 176 165 160 160 153 157 157 157 160 157 155 157 161 160 163 166 168 168 167 170 171 172 174 180 181 176 177 179 183 180 177 179 178 178 180
284 285 285 287 288 290 287 286 285 282 280 279 278 281 283 278 272 267 273 278 278 280 281 285 282 259 244 239 231 231 226 227 229 226 227 229 234 234 230 226 222 232 246 256 231 183 169 176 177 171 175 169 161 160 156 155 161 159 158 160 159 158 161 162 164 166 167 167 167 167 169 172 175 178 178 176 178 183 183 179 178 179 179 178 178
286 285 288 288 289 289 288 287 284 282 278 277 278 278 277 274 274 277 280 277 276 277 279 283 287 274 252 242 237 234 226 227 229 230 231 231 234 235 234 228 223 228 238 254 251 218 173 170 177 173 169 170 164 159 159 155 166 163 161 161 161 160 161 164 165 166 165 166 167 167 168 173 176 177 177 178 180 181 180 180 178 178 177 173 171
288 287 286 283 285 285 287 284 283 280 277 276 275 273 274 274 282 283 283 287 284 280 281 279 281 280 266 251 242 238 232 235 236 234 235 232 234 238 236 231 227 226 238 243 248 224 197 173 165 171 169 165 164 159 159 156 165 166 161 163 159 155 158 162 165 166 166 166 167 169 169 171 174 176 177 178 179 178 181 181 175 169 168 167 166
286 286 286 285 285 284 281 283 280 277 277 274 274 274 272 274 279 283 285 282 278 272 271 278 283 283 278 261 250 242 233 235 235 235 235 235 235 238 239 234 230 229 230 239 247 225 203 175 156 164 168 160 166 162 156 157 165 168 163 165 156 156 158 161 167 169 168 167 167 169 170 171 173 174 176 177 176 174 175 175 171 166 165 167 167
287 287 287 286 284 280 281 279 279 278 277 273 272 271 272 275 277 280 280 273 272 277 277 272 275 279 279 269 255 249 241 241 237 237 234 237 234 240 239 232 233 233 228 238 237 210 182 137 154 163 169 164 157 166 158 159 163 166 164 162 161 162 161 161 163 170 169 168 168 169 171 172 172 172 172 174 174 172 171 169 166 168 169 170 169
289 284 287 285 285 283 279 276 279 277 275 274 271 270 271 271 273 275 272 273 280 284 283 274 268 273 276 273 260 249 243 247 244 243 241 239 236 238 240 234 237 238 240 240 230 200 167 165 159 159 165 170 162 164 162 163 162 162 161 164 166 165 164 162 165 168 170 167 169 169 171 172 171 170 170 171 172 172 172 169 165 169 173 171 168
286 288 288 289 285 282 280 279 278 275 273 271 271 269 269 269 270 270 271 273 274 274 272 272 270 271 273 276 267 248 243 246 247 249 248 242 233 237 240 238 237 246 246 244 215 184 176 153 174 163 165 166 167 164 163 160 160 161 160 157 160 161 161 163 163 165 171 168 168 169 171 171 168 167 169 170 171 173 171 171 168 168 171 167 160
289 289 290 289 286 285 280 279 279 276 275 272 271 269 267 267 267 269 269 271 270 269 270 273 275 271 273 273 272 257 242 243 244 245 247 248 241 238 241 245 247 249 252 236 207 187 169 161 161 170 166 166 163 163 158 157 161 158 154 156 159 160 160 163 162 164 167 168 166 169 171 169 164 163 165 169 170 171 173 172 170 172 168 160 155
289 289 289 289 285 284 282 280 279 277 275 273 271 270 268 267 266 266 267 267 267 266 266 266 268 268 267 269 268 257 243 240 245 247 247 245 243 241 244 249 252 253 254 232 194 180 169 163 159 159 169 158 155 162 161 157 154 147 145 149 148 145 143 146 158 160 164 171 168 170 173 171 164 164 164 164 167 167 173 173 179 168 164 158 156
291 290 288 286 284 282 281 280 279 277 274 271 269 266 265 265 265 264 265 265 264 264 265 263 260 256 256 255 257 253 245 239 242 246 254 260 249 243 246 259 262 262 254 215 186 171 167 163 163 158 161 162 158 158 169 158 156 156 151 147 150 157 163 160 161 165 164 171 171 169 172 174 168 164 166 162 169 171 170 173 177 164 160 159 157
292 289 290 288 286 282 281 278 275 273 270 269 268 266 265 264 264 263 263 264 264 264 265 262 260 258 260 263 265 259 245 240 240 246 251 265 287 291 288 288 283 276 246 200 177 168 166 166 166 163 163 160 163 155 155 158 153 154 158 155 156 160 162 167 167 165 169 168 166 170 175 167 171 170 165 163 166 170 171 172 171 163 158 160 159
293 291 290 289 288 285 281 276 273 270 269 267 265 261 261 261 261 262 262 261 264 264 263 263 260 257 255 254 255 258 250 244 242 246 251 256 268 275 274 278 282 283 244 197 172 167 162 161 163 161 160 161 158 154 157 160 162 162 165 162 161 160 154 152 167 162 157 167 164 162 177 177 170 176 168 168 170 164 164 164 167 165 162 161 161
293 291 290 288 284 282 281 277 272 269 266 264 262 262 261 260 258 257 256 257 259 262 263 264 262 257 258 256 254 255 252 247 245 246 251 254 257 260 273 278 279 285 256 205 172 162 156 161 163 161 160 161 161 162 162 169 166 157 153 150 147 147 147 156 146 173 162 158 157 167 172 170 170 168 169 168 170 162 159 158 164 166 168 163 163
290 290 287 287 284 281 280 278 274 270 266 261 263 265 265 264 264 263 262 261 256 256 258 259 262 261 257 257 258 259 252 247 247 249 249 250 255 265 275 274 271 268 273 223 176 158 159 161 162 160 164 163 168 166 166 163 159 157 160 161 156 155 159 158 170 184 235 167 168 165 177 188 164 173 176 169 163 162 153 160 161 166 171 168 166
291 287 287 284 284 283 280 278 274 272 268 266 267 271 269 267 265 264 265 265 264 265 262 258 258 259 259 259 258 254 248 244 244 247 249 253 260 270 276 279 279 277 267 246 183 163 161 159 162 165 163 170 167 170 165 157 161 166 166 155 155 160 165 173 174 177 186 177 165 169 176 192 163 169 171 175 163 162 162 163 167 171 174 175 172
291 288 287 289 289 286 280 278 277 275 275 272 272 272 272 270 269 267 265 265 264 263 264 263 259 255 251 252 257 256 258 253 249 252 255 263 269 272 278 282 283 278 277 251 202 168 162 160 163 168 169 167 168 171 166 168 164 163 161 163 167 171 173 174 177 168 151 171 161 169 176 187 165 164 176 162 156 157 165 168 173 177 178 178 175
291 290 287 282 280 277 275 277 276 277 278 277 276 274 272 271 272 270 265 264 263 262 261 261 261 261 259 261 262 263 261 259 254 254 254 259 270 282 282 284 285 289 281 244 199 169 165 164 164 169 172 164 169 174 173 165 162 164 168 173 174 171 172 176 163 148 155 172 173 165 170 173 180 159 181 173 154 167 172 181 177 176 175 175 176
292 294 289 287 286 286 285 276 275 274 275 279 279 277 276 275 277 274 266 262 260 259 257 257 258 258 258 262 264 267 269 263 255 251 253 257 266 272 280 281 288 288 273 227 198 174 168 168 168 167 168 173 170 167 163 167 168 173 175 171 167 159 125 82 68 102 139 181 164 155 176 175 164 166 181 159 158 172 180 187 181 176 175 177 179
309 311 309 307 305 302 297 294 291 284 279 281 283 283 281 282 280 274 268 264 262 261 257 254 255 258 257 253 253 254 257 261 260 256 250 250 258 271 276 282 289 290 269 217 202 188 174 169 169 167 167 171 165 161 164 169 168 152 113 84 97 112 129 148 151 148 160 182 175 173 161 163 182 172 151 139 147 163 176 183 191 184 181 181 181
314 313 310 307 308 305 301 296 293 293 288 283 287 289 287 284 281 269 267 264 263 260 259 254 248 244 242 240 244 252 256 258 258 256 252 244 250 259 269 279 287 290 264 216 203 196 180 170 167 166 165 163 164 167 166 162 155 139 130 141 155 159 160 161 150 153 172 170 203 176 144 159 171 150 130 138 163 161 171 191 197 195 189 185 183
316 314 314 312 311 308 303 297 293 292 291 290 291 294 296 292 284 268 256 258 258 260 260 259 260 259 254 251 249 249 253 256 258 256 251 239 243 252 262 274 285 286 259 205 192 199 191 170 166 165 161 161 164 166 161 154 148 151 154 164 166 163 167 169 168 175 165 173 184 159 142 168 154 146 123 95 75 54 182 183 190 200 196 191 187
309 313 314 311 309 305 299 293 296 301 296 293 296 299 296 293 290 271 259 252 262 261 264 263 261 262 257 253 251 250 252 254 256 255 250 239 236 244 254 267 273 275 257 199 186 185 190 181 174 162 161 161 161 161 162 156 159 163 167 167 163 165 172 176 170 158 153 196 191 175 164 159 157 171 144 124 168 243 103 187 188 184 180 179 188